Home   Weather   Bangor   Past weeks

Flag for United Kingdom Past Weather in Bangor, Wales, United Kingdom — Yesterday and Last 2 Weeks

Now
56 °F

Cool.


Feels Like: 51 °F
Forecast: 53 / 59 °F
Wind: 22 mph from West

Location: Capel Curig

Current Time: Sep 29, 2016 at 4:27:58 PM

Latest Report: Sep 29, 2016 at 3:00 PM


Visibility: 16 mi

Pressure: 29.87 "Hg

Humidity: 73%

Dew Point: 47 °F

Location of BangorLocation

Past Weather in Bangor — Graph

°F

Bangor Temperature Yesterday

Maximum temperature yesterday: 61 °F (at 2:00 PM)
Minimum temperature yesterday: 56 °F (at 6:00 AM)
Average temperature yesterday: 58 °F

High & Low Weather Summary for the Past Weeks

 TemperatureHumidityPressure
High77 °F (Sep 14, 3:00 PM)100% (Sep 15, 7:00 AM)30.27 "Hg (Sep 15, 7:00 AM)
Low42 °F (Sep 21, 4:00 AM)60% (Sep 17, 2:00 PM)29.67 "Hg (Sep 25, 2:00 AM)
Average56 °F85%30.04 "Hg
* Reported Sep 14 3:00 PM — Sep 29 3:00 PM, Bangor, Weather by CustomWeather, © 2016

Note: Actual official high and low records may vary slightly from our data, if they occured in-between our weather recording intervals... More about our weather records

Advertising

Bangor Weather History for the Previous 24 Hours

Scroll right to see more
 ConditionsComfort  
Time TempWeatherWind HumidityBarometerVisibility
3:00 PM
Thu, Sep 29
56 °FCool.22 mph73%29.87 "Hg16 mi
2:00 PM55 °FCool.23 mph71%29.88 "Hg14 mi
1:00 PM55 °FCool.28 mph68%29.88 "Hg16 mi
12:00 PM54 °FCool.24 mph69%29.88 "Hg22 mi
8:00 AM55 °FCool.31 mph78%29.85 "Hg12 mi
7:00 AM54 °FCool.29 mph76%29.85 "Hg18 mi
6:00 AM54 °FCool.28 mph74%29.85 "Hg19 mi
5:00 AM56 °FCool.25 mph80%29.85 "Hg15 mi
4:00 AM59 °FCool.29 mph78%29.85 "Hg25 mi
3:00 AM59 °FRain. Overcast.36 mph94%29.85 "Hg3 mi
2:00 AM60 °FRain. Overcast.36 mph97%29.87 "Hg1 mi
1:00 AM59 °FRain. Overcast.40 mph97%29.88 "Hg2 mi
12:00 AM59 °FRain. Overcast.38 mph98%29.89 "Hg1 mi
11:00 PM
Wed, Sep 28
58 °FRain. Overcast.40 mph99%29.91 "Hg1 mi
10:00 PM58 °FLight rain. Overcast.47 mph98%29.93 "Hg2 mi
9:00 PM58 °FLight rain. Overcast.39 mph99%29.95 "Hg1 mi
8:00 PM59 °FLight rain. Overcast.38 mph99%29.99 "Hg1 mi
7:00 PM59 °FLight rain. Overcast.33 mph100%30.00 "Hg1 mi
6:00 PM60 °FLight rain. Cloudy.39 mph99%30.01 "Hg1 mi
5:00 PM60 °FRain. Cloudy.28 mph98%30.04 "Hg1 mi
Weather by CustomWeather, © 2016

See weather overviewHow to use our weather pages